EHI
9 7 6 6 5 6 6 5 2 1 0 1 2 4 6 5 5 6 5 2 0 0 0 0 0 0 0 0 0 0 0 0 0 0 0 0 0 0
8 7 6 5 4 4 5 4 3 2 1 2 3 5 6 6 5 6 5 2 0 0 0 0 0 0 0 0 0 0 0 0 0 0 0 0 0 0
8 8 7 7 6 6 6 5 4 4 3 3 3 5 6 6 5 6 4 2 0 0 0 0 0 0 0 0 0 0 0 0 0 0 0 0 0 0
11 11 11 11 11 11 9 7 6 5 5 4 4 4 5 4 5 5 4 2 1 0 0 0 0 0 0 0 0 0 0 0 0 0 0 0 0 0
13 14 16 15 14 13 10 9 8 7 6 5 4 3 3 2 3 4 3 2 1 0 0 0 0 0 0 0 0 0 0 0 0 0 0 0 0 0
13 14 15 15 14 11 10 10 9 9 8 6 3 2 1 1 1 2 2 2 1 0 0 0 1 1 1 0 0 0 0 0 0 0 0 0 0 0
13 12 12 12 10 8 8 8 9 9 9 6 3 2 1 2 1 1 1 1 1 1 1 2 3 3 2 1 1 0 0 0 0 0 0 0 0 0
14 12 10 8 7 5 3 3 5 6 7 5 4 3 3 4 3 1 1 2 2 3 4 4 4 4 3 2 1 0 0 0 0 0 0 0 0 0
15 13 10 8 7 6 3 1 2 3 3 3 4 5 5 5 5 3 2 2 4 5 6 6 4 3 3 3 1 0 0 0 0 0 0 0 0 0
14 12 10 9 8 6 5 4 3 2 1 1 2 3 4 4 5 5 4 4 4 6 6 5 4 3 3 2 1 0 0 0 0 0 0 0 0 0
12 10 8 8 6 4 5 6 6 4 2 1 1 1 1 1 2 4 6 5 5 6 5 4 3 3 3 2 1 0 0 0 0 0 0 0 0 0
11 8 5 4 3 2 4 6 7 5 3 2 1 1 1 1 1 3 5 6 6 6 4 3 3 3 3 3 1 0 0 0 0 0 0 0 0 0
10 7 4 3 2 1 2 3 4 4 3 3 2 2 2 2 2 3 4 5 6 5 4 3 3 3 3 3 2 1 0 0 0 0 0 0 0 0
8 6 3 1 1 0 0 1 1 1 1 2 3 3 3 4 3 3 3 4 5 4 3 3 3 3 3 3 2 1 0 0 0 0 0 0 0 0
6 4 1 0 0 0 0 0 0 0 0 1 2 3 4 4 4 3 3 3 4 3 3 3 3 3 3 3 2 1 0 0 0 0 0 0 0 0
3 2 1 0 0 0 0 0 0 0 0 0 1 2 3 3 3 3 3 3 3 3 3 3 2 2 2 1 1 0 0 0 0 0 0 0 0 0
2 2 2 1 0 0 0 0 1 1 0 0 0 1 1 2 2 2 3 3 3 3 2 1 1 1 1 0 0 0 0 0 0 0 0 0 0 0
2 3 3 2 1 1 1 1 2 2 1 0 0 0 0 1 1 1 1 2 2 1 1 0 0 0 0 0 0 0 0 0 0 0 0 0 0 0
2 3 3 3 3 2 2 3 3 3 2 1 0 0 0 0 0 0 0 1 1 0 0 0 0 0 0 0 0 0 0 0 0 0 0 0 0 0
2 2 2 3 3 3 3 3 3 3 3 2 1 0 0 0 0 0 0 0 0 0 0 0 0 0 0 0 0 0 0 0 0 0 0 0 0 0
1 1 1 1 2 2 2 2 3 3 3 2 1 0 0 0 0 0 0 0 0 0 0 0 0 0 0 0 0 0 0 0 0 0 0 0 0 0
0 0 0 0 1 1 1 1 1 3 3 2 1 0 0 0 0 0 0 0 0 0 0 0 0 0 0 0 0 0 0 0 0 0 0 0 0 0
0 0 0 0 0 0 0 0 1 2 3 1 0 0 0 0 0 0 0 0 0 0 0 0 0 0 0 0 0 0 0 0 0 0 0 0 0 0
Wind_Speed
4 4 4 3 3 3 4 4 5 4 4 3 3 2 2 1 2 3 3 4 5 5 5 5 4 4 4 4 4 4 4 4 4 4 5 5 5 6
3 3 3 3 3 4 4 4 5 5 4 2 2 2 1 2 3 3 3 5 7 7 6 5 5 5 5 4 4 4 4 4 4 4 5 5 5 5
4 4 4 4 4 4 4 4 4 4 5 3 2 2 3 3 2 3 3 5 5 8 7 6 5 5 5 5 5 4 4 4 4 5 5 6 5 5
5 4 4 4 5 5 4 5 4 4 5 5 3 3 4 4 3 4 4 3 3 7 9 7 7 6 6 5 5 4 4 5 5 5 5 5 6 6
5 5 5 5 5 4 5 5 4 4 5 5 4 2 3 3 4 4 4 3 4 5 9 9 8 7 6 6 6 5 5 5 6 6 6 6 6 6
5 5 5 5 5 5 5 5 5 5 5 5 4 4 3 3 4 4 3 3 3 3 3 5 7 9 9 8 7 6 6 6 6 6 6 6 6 6
5 5 5 5 4 5 5 5 5 5 5 5 5 4 3 3 3 3 3 3 3 3 2 3 4 5 6 9 9 7 6 6 6 6 6 6 6 6
5 5 5 5 5 6 6 5 5 6 6 5 5 4 4 4 3 4 4 3 3 1 3 3 3 3 3 3 5 7 7 6 6 6 6 6 6 6
5 5 5 3 5 5 6 7 7 7 7 7 7 6 5 4 4 5 4 4 4 2 3 4 3 3 3 2 7 6 7 7 6 7 7 6 6 6
5 5 4 4 3 4 5 5 6 6 7 7 6 6 5 4 5 6 5 5 6 5 4 4 3 3 3 3 7 7 7 7 7 7 7 7 7 7
5 4 5 4 2 3 5 5 5 4 3 4 4 4 3 4 5 5 6 5 5 4 3 4 3 3 3 3 5 9 8 8 8 8 8 7 7 7
4 4 3 3 3 4 5 5 5 4 3 3 4 5 6 6 8 8 7 6 5 4 2 3 4 3 3 3 3 4 6 8 9 9 9 8 7 6
3 3 2 4 3 4 6 5 4 4 5 5 4 4 5 5 6 6 6 6 6 5 3 3 4 4 4 3 3 3 4 3 5 6 9 10 9 8
3 2 1 4 4 5 5 3 4 5 5 4 4 4 4 4 4 5 5 6 6 6 5 5 4 4 4 4 3 3 3 4 4 4 4 7 10 11
2 1 2 4 5 5 6 6 6 5 4 4 4 3 3 3 4 4 5 5 6 7 6 7 6 5 5 5 4 3 3 3 4 4 3 4 4 5
3 2 5 6 6 4 4 6 5 4 4 4 3 3 2 3 4 4 4 5 5 5 5 6 6 6 6 6 5 4 4 4 3 3 3 4 4 4
2 3 2 2 3 3 3 3 3 3 3 3 3 3 3 4 4 3 4 5 5 5 4 4 5 4 5 5 5 4 4 3 3 3 3 4 4 4
3 2 2 2 2 3 3 3 3 3 3 4 4 3 3 4 3 3 4 5 5 4 4 3 3 3 4 4 5 5 4 4 3 3 4 5 5 4
3 2 2 2 2 2 2 2 3 3 3 4 4 4 4 4 4 4 4 4 4 4 4 3 3 4 5 5 4 5 4 4 4 4 5 5 5 4
3 2 2 2 2 2 3 3 3 3 3 3 4 4 4 4 4 4 4 4 4 4 4 4 4 4 5 5 4 2 5 4 4 5 5 4 3 2
2 2 2 2 2 3 3 3 4 3 3 4 4 4 4 4 4 4 4 4 5 4 5 4 2 3 4 4 4 4 3 4 3 4 5 5 4 4
2 2 3 3 3 3 4 4 4 3 3 4 3 3 3 4 4 5 5 4 4 5 5 3 2 3 4 5 5 4 3 2 3 3 3 3 4 5
3 3 3 3 3 3 4 4 5 4 3 3 4 4 3 4 4 4 4 4 4 4 4 4 3 3 4 4 4 4 4 4 3 4 4 4 6 5
Wind_Direction
221 221 239 248 249 248 245 246 256 258 245 215 228 214 228 203 166 230 226 166 191 202 208 210 212 216 219 216 218 223 222 221 223 217 217 221 225 226
225 232 244 242 240 239 244 250 257 264 269 245 238 229 261 245 182 234 236 178 195 196 201 206 210 216 218 219 218 219 223 224 225 218 210 210 219 222
221 216 225 248 249 245 241 244 247 253 256 254 242 213 226 257 238 250 233 228 195 180 188 198 207 211 214 216 215 216 220 220 222 219 212 211 210 212
219 219 224 227 234 249 249 247 247 254 254 255 250 229 220 232 235 251 248 240 237 170 182 196 204 206 209 211 211 214 219 223 225 222 219 217 214 213
225 228 230 233 236 239 245 248 243 237 243 249 250 244 236 231 234 236 239 247 247 186 183 193 197 201 205 208 211 216 220 224 224 220 218 218 219 218
233 236 237 235 238 240 236 240 245 246 239 245 246 241 238 227 240 240 234 224 243 239 210 199 190 199 205 206 209 215 218 220 222 221 220 218 218 218
234 238 239 237 247 254 254 241 237 241 238 239 241 243 241 237 244 250 253 245 239 240 234 219 200 211 205 203 205 209 213 214 215 216 216 217 217 215
236 240 236 223 222 230 244 252 256 247 252 253 251 253 254 252 261 260 260 251 252 219 252 252 233 226 221 215 170 182 201 210 212 211 212 214 216 217
240 245 251 236 231 237 218 219 232 239 246 259 262 263 257 251 253 253 255 269 280 271 251 252 240 235 227 167 155 181 195 205 210 209 211 214 217 220
235 237 243 249 255 263 246 233 233 228 228 235 250 259 261 261 248 256 259 254 253 241 237 255 251 245 234 187 167 185 193 200 204 207 211 214 218 225
233 230 237 235 223 259 250 243 239 238 217 215 245 252 261 250 250 250 246 249 255 246 223 248 256 256 245 219 175 181 192 200 205 210 212 214 217 226
222 211 205 240 211 224 245 243 240 245 249 226 223 227 230 227 223 237 252 257 261 261 226 242 252 249 250 225 198 189 201 202 207 211 212 212 212 231
237 230 188 171 206 226 250 254 256 264 254 245 236 232 228 226 224 225 240 255 263 267 251 237 258 247 251 254 231 217 221 215 209 212 210 208 208 225
254 257 209 170 205 225 235 240 251 251 249 249 245 241 240 236 232 235 235 244 257 262 270 265 260 260 259 259 257 233 233 230 224 224 223 193 206 218
273 269 251 221 225 225 212 216 230 241 244 243 246 252 253 253 245 231 227 227 238 243 241 245 247 247 256 260 261 258 262 251 236 229 227 222 223 217
245 203 208 220 231 235 217 215 228 240 248 250 251 260 263 246 239 238 232 226 233 234 223 225 236 245 252 256 255 256 254 251 241 240 241 239 229 228
275 244 229 214 220 218 225 222 225 229 236 249 251 248 248 246 244 238 240 241 245 245 230 214 215 223 246 261 253 254 257 257 254 238 239 245 242 235
251 237 236 234 239 239 236 235 238 239 242 239 242 244 248 251 249 242 241 244 248 252 253 238 216 226 237 228 232 247 248 251 254 239 244 247 246 236
229 242 252 254 252 256 259 256 252 248 250 249 249 248 248 248 247 244 243 248 254 258 256 246 234 237 249 257 219 212 250 258 256 248 242 251 256 249
247 257 262 269 269 269 267 266 264 260 254 254 251 251 248 248 247 245 245 251 256 256 254 244 241 246 253 269 277 229 220 247 250 253 255 259 262 229
273 287 291 293 288 278 274 269 267 263 262 260 257 253 250 250 251 251 250 242 252 255 256 254 252 241 257 261 260 245 211 206 250 262 264 265 263 255
284 285 287 289 286 281 275 269 263 260 259 260 258 253 254 257 255 256 255 250 245 250 258 266 238 229 241 247 257 255 248 213 202 214 246 268 273 271
292 289 283 276 273 275 276 273 270 266 264 269 269 258 251 250 253 256 257 257 256 257 257 259 256 243 249 252 259 264 258 247 233 220 218 206 215 230